Powrót do katalogu

GEESAT 1-08

AktywnyNaukaLEO
NORAD 52792·PAYLOAD·🇨🇳 China

Wystrzelony Jun 2, 2022 z Xichang Satellite Launch Center

Loading…

Następne Przeloty (najbliższe 24 godziny)

TLE

ŚwieżeSource: Space-Track

Epoka: Sep 14, 2026, 21:21 UTC

1 52792U 22058H   26257.88978046  .00001165  00000-0  17472-3 0  9991
2 52792  49.9934 147.2058 0019531 274.4664  85.4042 14.81597222233231

Śledź GEESAT 1-08 w czasie rzeczywistym z AllMySat

Download on the App Store